Regional Weather Roundup
Issued by NWS

Home | Current Version | Previous Version | Graphics & Text | Print | Product List | Glossary Off
Versions: 1 2 3 4 5 6 7 8 9 10 11 12 13 14 15 16 17 18 19 20 21 22 23 24 25 26 27 28 29 30 31 32 33 34 35 36 37 38 39 40 41 42 43 44 45 46 47 48 49 50

000
ASUS43 KIND 090809
RWRIN

WEATHER ROUNDUP FOR INDIANA
NATIONAL WEATHER SERVICE INDIANAPOLIS IN
300 AM EST FRI DEC 09 2016

NOTE: "FAIR" INDICATES FEW OR NO CLOUDS BELOW 12,000 FEET WITH NO
SIGNIFICANT WEATHER AND/OR OBSTRUCTIONS TO VISIBILITY.

* - STATION DOES NOT REPORT WEATHER SUCH AS PRECIPITATION OR FOG.

+ - STATION NOT QUALITY CONTROLLED BY THE NATIONAL WEATHER SERVICE.
    USE DATA WITH CAUTION...ESPECIALLY DEWPOINT AND RELATIVE
    HUMIDITY OBSERVATIONS.

INZ001>003-010>013-019-020-090900-
NORTHWEST INDIANA

CITY           SKY/WX    TMP DP  RH WIND       PRES   REMARKS
GARY /AIRPORT/ CLOUDY    24  19  80 W10       30.45R WCI  14
KNOX *+        CLOUDY    23   3  42 W14G21    30.43R WCI  11
LA PORTE +     FLURRIES  22  17  80 W14       30.41R WCI  10
MICHIGAN CITY+ FLURRIES  28  21  74 W8        30.41R WCI  20
MONTICELLO +   CLOUDY    22  13  68 W9        30.45S WCI  12
RENSSELAER +     N/A     23  19  86 W10       30.46R WCI  12
VALPARAISO     CLOUDY    23  16  74 MISG      30.43R

$$

LMZ046-743>745-090900-
SOUTHERN LAKE MICHIGAN

STATION/POSITION TIME  TEMP    WIND        PRES    WAVE
                       AIR SEA DIR/SP/G            HT
                 (UTC) (F)     (DEG/KT/KT) (MB)    (FT)

$$

INZ004-005-014>016-021>024-090900-
NORTH CENTRAL INDIANA

CITY           SKY/WX    TMP DP  RH WIND       PRES   REMARKS
GOSHEN         MOCLDY    21  15  78 W15       30.37R WCI   8
LOGANSPORT +   FLURRIES  23  18  80 W10       30.46R WCI  12
PERU/GRISSOM   FLURRIES  22  18  86 W13       30.42R WCI   9
ROCHESTER +    FLURRIES  27  21  80 W12G17    30.42S WCI  16
SOUTH BEND     LGT SNOW  21  19  92 SW14      30.37R FOG     WCI   8
WARSAW +       CLEAR     21  14  73 W13       30.37S WCI   9

$$

INZ006>009-017-018-025>027-090900-
NORTHEAST INDIANA

CITY           SKY/WX    TMP DP  RH WIND       PRES   REMARKS
ANGOLA *+      CLOUDY    21  18  86 W9        30.32S WCI  11
AUBURN +       CLEAR     21  16  79 SW8       30.37R WCI  12
FORT WAYNE     PTCLDY    21  14  74 W14G22    30.39R WCI   8
HUNTINGTON +   CLEAR     20  15  81 W12       30.39R WCI   8
KENDALLVILLE + MOCLDY    21  17  84 W14       30.34R WCI   8

$$

INZ028-029-035-036-043>045-051>053-090900-
WEST CENTRAL INDIANA

CITY           SKY/WX    TMP DP  RH WIND       PRES   REMARKS
CRAWFORDSVL +  LGT SNOW  19  18  95 W7        30.49R WCI   9
GREENCASTLE +  LGT SNOW  21  19  93 W5        30.50R WCI  15
LAFAYETTE      FLURRIES  21  17  84 W8        30.48R WCI  11
TERRE HAUTE    FLURRIES  21  14  74 W6        30.54R WCI  13

$$

INZ030>032-037>040-046>048-054>057-064-065-090900-
CENTRAL INDIANA

CITY           SKY/WX    TMP DP  RH WIND       PRES   REMARKS
CP ATTERBURY + FLURRIES  23  16  74 W5        30.51R WCI  17
FISHERS *+     CLOUDY    19  19 100 W7        30.47R WCI  10
FRANKFORT +    LGT SNOW  24  20  86 W10       30.48R WCI  13
GREENWOOD *+   CLOUDY    21  17  84 W9G16     30.48R WCI  11
INDIANAPOLIS   FLURRIES  20  16  84 W10       30.48R WCI   9
-EAGLE CREEK   LGT SNOW  21  16  81 W8        30.47R WCI  11
KOKOMO +       FLURRIES  21  18  88 W10       30.45R WCI  10
MARION +       FLURRIES  20  17  88 W17       30.43S WCI   6
MT COMFORT *+  CLOUDY    19  16  86 W9        30.47R WCI   9
SHELBYVILLE    LGT SNOW  21  16  81 W10       30.48R WCI  10
ZIONSVILLE +   LGT SNOW  20  17  87 W8        30.47R WCI  10

$$

INZ033-034-041-042-049-050-058-059-090900-
EAST CENTRAL INDIANA

CITY           SKY/WX    TMP DP  RH WIND       PRES   REMARKS
MUNCIE         LGT SNOW  22  17  81 W10       30.43S WCI  11

$$

INZ060-061-067>069-081>083-085>088-090900-
SOUTHWEST INDIANA

CITY           SKY/WX    TMP DP  RH WIND       PRES   REMARKS
EVANSVILLE     CLOUDY    26  13  57 N10G16    30.57R WCI  16
HUNTINGBURG *+ FLURRIES  23  17  78 N5        30.55R WCI  17
WASHINGTON +   CLOUDY    23  15  71 NW12G18   30.55R WCI  12

$$

INZ062-063-066-070>080-084-089>092-090900-
SOUTH CENTRAL AND SOUTHEAST INDIANA

CITY           SKY/WX    TMP DP  RH WIND       PRES   REMARKS
BLOOMINGTON      N/A     20  13  74 W5        30.50R WCI  13
MADISON *+     CLOUDY    23  14  68 W9        30.51R WCI  13
NORTH VERNON + FLURRIES  23  19  86 W8        30.51R WCI  14
SEYMOUR +      CLOUDY    23  12  63 W10       30.53R WCI  12

$$




USA.gov is the U.S. government's official web portal to all federal, state and local government web resources and services.